Время (UTC), дата Ветер
(°,м/с) 
Видим.   Явления Облачность Т
(°С)
Тd
(°С)
f(%) Тe
(°С)
Pmin
(гПа)
dP
(гПа)
Po
(мм)
O2
(г/м3)
Тmin Tmax R s Состояние
почвы
00 01.04.12 200 (Ю) 10 км    ясно 
+7.6 +1.8 67 +6  1006.2  -1.9  752  294           
03 01.04.12 200 (Ю) 10 км    10/8 1000 м кучево-дожд., средняя 
[Cb cap|Ac und]
+8.5 +0.7 58 +7  1004.9  -1.2  751  293           
06 01.04.12 200 (Ю) 10 км    6/3 1000 м средняя 
[Sc|Ac trans]
+11.8 +0.1 44 +11  1004.6  -0.3  751  290  +5.9         
09 01.04.12 210 (ЮЗ) 8{19}  10 км    5/3 1000 м верхняя 
[Sc|Ci]
+15.5 -2.5 29 +15  1003.4  -1.1  750  286           
15 01.04.12 210 (ЮЗ) 10 км    10/3 1000 м средняя, верхняя 
[Sc|Ac trans|Ci fib]
+15.2 -2.3 30 +15  1002.4  749  286    +17.3       
18 01.04.12 230 (ЮЗ) 10 км    8/8 1000 м 
[Sc]
+13.3 +2.6 48 +13  1004.1  1.7  750  288    +17.3       
21 01.04.12 250 (З) 4000 м  слаб. ливневой дождь  10/10 600 м кучево-дожд. 
[Cb cap]
+9.5 +7.1 85 +9  1005.1  751  291           
00 02.04.12 300 (СЗ) 4000 м  слаб. ливневой дождь  10/10 600 м кучево-дожд. 
[Cb cap]
+2.5 +1.5 93 +1  1008.1  2.8  753  301           
03 02.04.12 250 (З) 0500 м  ливневой снег  10/10 300 м кучево-дожд. 
[Cb cap]
+0.4 -0.1 96 +1  1010.8  2.7  755  304        равномерный
мокрый или
старый снег
100% 
06 02.04.12 210 (ЮЗ) 10 км  {ливн. осадки}  10/10 100 м кучево-дожд. 
[Cb cap]
+2.2 +1.4 95 +2  1013.2  2.4  757  302  +0.3       
09 02.04.12 240 (ЮЗ) 10 км    8/0 верхняя 
[Ci fib]
+6.7 +2.5 75 +6  1015.6  2.4  759  298           
12 02.04.12 250 (З) 10 км    8/8 600 м кучево-дожд. 
[Cb cap]
+10.6 -0.6 46 +10  1016.1  0.6  759  295           
15 02.04.12 280 (З) 10 км    5/5 1000 м 
[Sc diur, vesp]
+9.1 +0.3 54 +9  1017.8  1.7  761  297    +10.9       
18 02.04.12 220 (ЮЗ) 10 км    ясно 
+6 -1.3 59 +6  1020.5  1.7  763  301    +10.9  11     
21 02.04.12 210 (ЮЗ) 10 км    ясно 
+4.3 +0.1 74 +4  1021.3  0.7  763  303           
00 03.04.12 210 (ЮЗ) 10 км    ясно 
+3.7 -0 77 +5  1021.9  0.5  764  304           
03 03.04.12 210 (ЮЗ) 10 км    ясно 
+4 -0.3 74 +5  1022.5  0.7  764  303           
06 03.04.12 210 (ЮЗ) 10 км    1/0 верхняя 
[Ci fib]
+8.6 +1.7 62 +8  1023.9  1.4  765  299  +3.1         
09 03.04.12 220 (ЮЗ) 10 км    3/0 верхняя 
[Ci fib]
+12.4 -1.2 39 +12  1024.4  0.6  766  295           
12 03.04.12 250 (З) 10 км    4/0 верхняя 
[Ci fib]
+14.5 -4.5 27 +15  1023.5  -0.9  765  293           
15 03.04.12 250 (З) 10 км    3/0 верхняя 
[Ci fib]
+13 +0.2 41 +14  1023.4  -0.9  765  294    +14.7       
18 03.04.12 тихо ()   10 км    ясно 
+8.7 +1.2 59 +9  1024.5  1.1  766  299    +14.7       
21 03.04.12 тихо ()   10 км    8/0 верхняя 
[Ci fib]
+5.6 +1.2 73 +6  1024.2  -0.4  765  302           
00 04.04.12 тихо ()   10 км    ясно 
+3.8 +1.2 83 +4  1023.5  -0.8  765  304           
03 04.04.12 тихо ()   10 км    10/0 верхняя 
[Ci fib]
+2.5 +0.5 87 +3  1023.6  -0.8  765  305           
06 04.04.12 160 (Ю) 10 км    10/0 верхняя 
[Ci fib]
+9.2 +2.3 62 +10  1024.2  0.6  765  298  +2.5         
09 04.04.12 140 (ЮВ) 10 км    10/0 средняя, верхняя 
[Ac trans|Ci fib]
+16.4 -1.8 29 +18  1023.7  -0.4  765  291           
12 04.04.12 200 (Ю) 10 км    8/0 верхняя 
[Cc]
+20.6 -0.9 24 +21  1022.1  -1.5  764  286           
15 04.04.12 120 (ЮВ) 10 км    4/0 верхняя 
[Ci fib]
+19.2 -0.9 26 +20  1020.8  -1.4  763  287    +21.8       
18 04.04.12 тихо ()   10 км    ясно 
+12.3 +3.5 55 +12  1020.8  763  294    +21.8       
21 04.04.12 тихо ()   10 км    ясно 
+11.1 +2.5 55 +11  1020.7  763  295           
00 05.04.12 тихо ()   10 км    ясно 
+7.2 +3.6 78 +7  1019.8  -1  762  299           
03 05.04.12 тихо ()   10 км    5/0 верхняя 
[Ci fib]
+5.5 +2.7 82 +6  1019.7  0.1  762  301           
06 05.04.12 070 (В) 10 км    5/0 верхняя 
[Ci fib]
+16.9 +1.8 36 +18  1019.7  0.1  762  289  +5.5         
09 05.04.12 160 (Ю) 10 км    10/0 верхняя 
[Ci]
+22.3 -0.4 22 +22  1018.6  -1  761  284           
12 05.04.12 230 (ЮЗ) 10 км    10/0 средняя, верхняя 
[Ac trans|Ci]
+24.4 -3 16 +24  1017  -1.6  760  281           
15 05.04.12 230 (ЮЗ) 10 км    10/0 средняя, верхняя 
[Ac trans|Ci]
+22.7 -2.9 18 +23  1016.4  -0.6  760  283    +24.9       
18 05.04.12 тихо ()   10 км    10/3 1500 м средняя, верхняя 
[Sc|Ac trans|Ci fib]
+18.1 +0.6 31 +18  1016.3  -0.2  760  287    +24.9       
21 05.04.12 270 (З) 10 км    9/0 средняя 
[Ac trans]
+17.4 -0.1 31 +19  1015.4  -0.9  759  287           
00 06.04.12 070 (В) 10 км    10/0 средняя, верхняя 
[Ac trans|Cs]
+14.3 +4.7 52 +15  1013.7  -1.7  758  289           
03 06.04.12 080 (В) 10 км    9/5 1000 м средняя 
[Sc|Ac trans]
+13.8 +3.3 49 +15  1013.3  -0.4  757  290           
06 06.04.12 120 (ЮВ) 10 км    3/0 средняя 
[Ac trans]
+20.3 +2.2 30 +20  1012.9  -0.3  757  284  +13.4         
09 06.04.12 110 (В) 10 км    8/5 1000 м средняя, верхняя 
[Sc diur, vesp|Ac cast|Ci]
+24.5 +0.6 21 +25  1011.6  -1.3  756  279           
12 06.04.12 220 (ЮЗ) 10 км    8/3 1000 м верхняя 
[Sc diur, vesp|Ci fib]
+26.6 -0.9 16 +27  1009.4  -2.2  755  277           
15 06.04.12 240 (ЮЗ) 10 км    9/3 1000 м средняя, верхняя 
[Sc diur, vesp|Ac cast|Ci fib]
+25 -1.1 18 +25  1008.1  -1.3  754  278    +27.6       
18 06.04.12 030 (СВ) 10 км  {ливн. осадки}  9/8 1000 м верхняя 
[Sc diur, vesp|Ci fib]
+21.9 +1.7 26 +22  1007.7  -0.5  753  281    +27.6       
21 06.04.12 210 (ЮЗ) 10 км    10/10 1000 м кучево-дожд. 
[Cb cap]
+19.3 +3.6 35 +21  1006.6  -1  752  283           
00 07.04.12 300 (СЗ) 4000 м  слаб. ливневой дождь  10/10 1000 м кучево-дожд. 
[Cb cap]
+17.2 +4.7 44 +19  1005  -1.7  751  284           
03 07.04.12 230 (ЮЗ) 10 км  {ливн. осадки}  10/10 1000 м кучево-дожд. 
[Cb cap]
+16 +3.2 42 +17  1005.7  0.7  752  286           
06 07.04.12 210 (ЮЗ) 4000 м  слаб. ливневой дождь  10/10 1000 м кучево-дожд. 
[Cb cap]
+14.9 +10 72 +17  1005.8  0.7  752  285  +15.8         
09 07.04.12 220 (ЮЗ) 10 км  {ливн. осадки}  8/5 1000 м кучево-дожд., средняя 
[Cb cap|Ac trans]
+19.3 +11.7 61 +23  1005.9  0.1  752  281           
12 07.04.12 240 (ЮЗ) 10 км  {ливн. осадки}  10/3 1000 м средняя, верхняя 
[Sc diur, vesp|Ac trans|Ci fib]
+20.4 +8.3 46 +20  1005.1  -0.8  751  280           
15 07.04.12 220 (ЮЗ) 10 км    10/5 1000 м кучево-дожд., средняя, верхняя 
[Cb cap|Ac trans|Ci fib]
+17.7 +8.2 54 +18  1005.4  0.2  751  283    +21.3       
18 07.04.12 190 (Ю) 10 км    8/3 1000 м кучево-дожд., средняя, верхняя 
[Cb cap|Ac trans|Ci fib]
+15.3 +9.2 67 +16  1005.4  -0.1  751  285    +21.3     
21 07.04.12 230 (ЮЗ) 10 км    10/5 1000 м средняя 
[Sc|Ac und]
+15.7 +9.2 65 +16  1005.2  -0.2  751  285           
00 08.04.12 220 (ЮЗ) 10 км    9/5 1000 м средняя 
[Sc|Ac trans]
+14.5 +9 70 +16  1004.8  -0.4  751  286           
03 08.04.12 тихо ()   10 км    10/3 1000 м средняя, верхняя 
[Sc|Ac trans|Ci fib]
+13.2 +9.3 77 +13  1004.9  0.1  751  287           
06 08.04.12 200 (Ю) 10 км    10/0 средняя, верхняя 
[Ac trans|Cs]
+17.4 +9.6 60 +20  1004.7  0.1  751  283  +13.2         
09 08.04.12 210 (ЮЗ) 10 км    10/0 средняя, верхняя 
[Ac trans|Ci]
+22.3 +9.1 43 +22  1003.4  -1.3  750  278           
12 08.04.12 210 (ЮЗ) 10 км    8/8 1000 м 
[Cu med, cong]
+23.9 +5.4 30 +24  1002  -1.4  749  277           
15 08.04.12 230 (ЮЗ) 10 км    10/3 1500 м средняя, верхняя 
[Cu med, cong|Ac trans|Ci fib]
+23.4 +3.5 27 +23  1000.9  -1.4  748  277    +24.9       
18 08.04.12 110 (В) 10 км    3/0 средняя 
[Ac trans]
+18.9 +8.3 50 +20  1001.8  0.8  749  281    +24.9       
21 08.04.12 100 (В) 10 км    3/0 средняя 
[Ac trans]
+16.5 +8.2 58 +18  1001.5  -0.4  748  283           
00 09.04.12 100 (В) 10 км    ясно 
+14.4 +8.2 66 +15  999.9  -1.6  747  285           
03 09.04.12 060 (СВ) 10 км    9/3 1500 м средняя 
[Sc|Ac trans]
+11.9 +7.9 76 +12  999.3  -0.6  747  287           
06 09.04.12 180 (Ю) 10 км    10/10 1000 м кучево-дожд. 
[Cb cap]
+15.1 +7.7 61 +16  1000.9  1.6  748  284  +11.6         
09 09.04.12 100 (В) 10 км  {ливн. осадки}  10/8 1000 м средняя 
[Sc diur, vesp|Ac und]
+22.4 +5 32 +22  998.5  -2.3  746  277           
12 09.04.12 200 (Ю) 10 км  {ливн. осадки}  10/0 средняя, верхняя 
[Ac cast|Ci sp]
+26.6 +1.9 20 +27  998.2  -0.3  746  274           
15 09.04.12 190 (Ю) 10 км    9/4 1000 м средняя 
[Sc|Ac trans]
+22.5 +2.5 27 +23  1000.2  748  278    +26.9       
18 09.04.12 190 (Ю) 10 км  слаб. ливневой дождь  10/10 1000 м кучево-дожд. 
[Cb cap]
+19.3 +7.4 46 +20  1002.8  2.5  749  281    +26.9       
21 09.04.12 320 (СЗ) 10 км  {ливн. осадки}  10/0 средняя 
[Ac und]
+11.9 +8.2 78 +12  1004.5  1.6  751  288           
00 10.04.12 230 (ЮЗ) 10 км  {ливн. осадки}  9/8 1000 м средняя 
[Sc|Ac trans]
+10.9 +8.2 83 +11  1005.6  1.1  752  290           
03 10.04.12 030 (СВ) 10 км    10/10 1000 м кучево-дожд. 
[Cb cap]
+11.9 +8.3 79 +13  1006.5  0.9  752  289           
06 10.04.12 300 (СЗ) 10 км  {ливн. осадки}  10/5 1000 м кучево-дожд., средняя, верхняя 
[Cb cap|Ac trans|Ci fib]
+11.7 +8.9 83 +12  1009.2  2.7  754  290  +10.6         
09 10.04.12 310 (СЗ) 10 км    3/3 1000 м 
[Sc diur, vesp]
+15.7 +8.6 63 +16  1010.5  1.4  755  286           
12 10.04.12 350 (С) 10 км    3/3 1000 м 
[Cu hum]
+19 +8.6 51 +21  1010.5  755  283           
15 10.04.12 340 (С) 10 км    10/3 1000 м верхняя 
[Sc|Ci fib]
+17.4 +7.3 51 +19  1010.2  -0.3  755  285    +19.9       
18 10.04.12 340 (С) 10 км    5/5 1000 м 
[Sc]
+11 +4.8 66 +11  1013  2.7  757  292    +19.9       
21 10.04.12 340 (С) 10 км    10/8 1000 м средняя 
[Sc|Ac und]
+9.4 +3.5 67 +9  1012  -1  756  294           
00 11.04.12 280 (З) 10 км    8/3 1000 м средняя, верхняя 
[Sc|Ac trans|Ci fib]
+8.2 +3.3 71 +8  1011.8  -0.2  756  295           
03 11.04.12 310 (СЗ) 10 км    10/4 1000 м средняя 
[Sc|Ac und]
+8.3 +4.2 75 +9  1012.6  0.7  757  295           
06 11.04.12 тихо ()   10 км    9/6 1000 м средняя 
[Sc|Ac trans]
+10.9 +5.1 67 +11  1012.6  0.1  757  292  +8.1         
09 11.04.12 210 (ЮЗ) 10 км    8/3 1500 м средняя, верхняя 
[Sc|Ac trans|Ci fib]
+16 +8 59 +17  1011.6  -1  756  286           
12 11.04.12 320 (СЗ) 10 км    10/8 1000 м кучево-дожд., средняя 
[Cb cap|Ac und]
+16.5 +7.5 55 +18  1010.9  -0.7  755  286           
15 11.04.12 290 (З) 10 км  слаб. ливневой дождь  10/10 1000 м кучево-дожд. 
[Cb cap]
+15.7 +9.1 65 +16  1009.7  -1.2  755  286    +17.3       
18 11.04.12 330 (СЗ) 10 км  в посл. час гроза{ливн. осадки}  10/10 600 м кучево-дожд. 
[Cb cap]
+12.1 +10.4 89 +14  1010.6  0.8  755  289    +17.3       
21 11.04.12 тихо ()   4000 м  слаб. ливневой дождь  10/10 600 м кучево-дожд. 
[Cb cap]
+11.4 +10.2 92 +13  1010.6  755  290           
00 12.04.12 180 (Ю) 4000 м  слаб. ливневой дождь  10/10 600 м кучево-дожд. 
[Cb cap]
+11.3 +10.5 95 +14  1009.4  -1.1  754  290           
03 12.04.12 260 (З) 4000 м  слаб. ливневой дождь  10/10 600 м кучево-дожд. 
[Cb cap]
+11.2 +10.2 94 +13  1009.2  -0.2  754  290           
06 12.04.12 250 (З) 4000 м  слаб. ливневой дождь  10/10 1000 м кучево-дожд. 
[Cb cap]
+11.1 +9.7 91 +13  1009.2  754  290  +11.2    10     
09 12.04.12 220 (ЮЗ) 10 км  слаб. ливневой дождь  10/10 200 м кучево-дожд. 
[Cb cap]
+11.4 +9.7 89 +12  1009.8  0.6  755  290           
12 12.04.12 230 (ЮЗ) 10 км  {ливн. осадки}  10/10 300 м кучево-дожд. 
[Cb cap]
+11.4 +9.7 89 +12  1009.8  0.8  755  290           
15 12.04.12 210 (ЮЗ) 10 км    10/10 300 м кучево-дожд. 
[Cb cap]
+11 +8 82 +11  1010.3  -0.3  755  291    +11.7       
18 12.04.12 210 (ЮЗ) 4000 м  слаб. ливневой дождь  10/0 кучево-дожд. 
[Cb cap]
+10.2 +8.2 87 +10  1011.4  1.1  756  292    +11.7     
21 12.04.12 210 (ЮЗ) 10 км  {ливн. осадки}  10/10 600 м 
[Sc diur, vesp]
+10.1 +6.9 80 +10  1012.1  0.6  756  293           
00 13.04.12 230 (ЮЗ) 10 км  {ливн. осадки}  10/10 600 м 
[Sc]
+10 +6.2 77 +10  1012.7  0.7  757  293           
03 13.04.12 240 (ЮЗ) 10 км    1/1 1000 м 
[Sc]
+8.7 +6.2 84 +9  1012.7  757  295           
06 13.04.12 270 (З) 10 км    ясно 
+13.2 +7.2 67 +14  1013.1  0.5  757  290  +8.6    0.3     
09 13.04.12 220 (ЮЗ) 10 км    3/3 1000 м 
[Cu hum]
+18.7 +7.1 47 +19  1012.8  -0.3  757  284           
12 13.04.12 230 (ЮЗ) 10 км    3/3 1000 м 
[Cu hum]
+20.7 +4.2 34 +21  1012.4  -0.4  757  283           
15 13.04.12 240 (ЮЗ) 10 км    1/1 1000 м 
[Sc diur, vesp]
+20 +3.4 33 +20  1012.3  0.1  757  284    +21.3       
18 13.04.12 тихо ()   10 км    ясно 
+14.1 +7.2 63 +14  1013.2  0.1  757  289    +21.3       
21 13.04.12 тихо ()   10 км    ясно 
+11.6 +7 73 +12  1012.9  -0.3  757  291           
00 14.04.12 тихо ()   10 км    ясно 
+9.9 +7 82 +10  1012.5  -0.5  757  293           
03 14.04.12 тихо ()   10 км    8/0 средняя, верхняя 
[Ac trans|Ci]
+8.1 +6.1 87 +8  1012.2  -0.3  756  295           
06 14.04.12 110 (В) 10 км    3/0 верхняя 
[Ci fib]
+17.5 +6.9 50 +19  1012.4  0.3  757  285  +7.7         
09 14.04.12 090 (В) 10 км    4/0 верхняя 
[Ci fib]
+23.1 -0.8 20 +23  1011.2  -1.1  756  281           
12 14.04.12 080 (В) 10 км    3/0 верхняя 
[Ci fib]
+25.9 +1.4 20 +26  1009.5  -1.7  755  277           
15 14.04.12 060 (СВ) 10 км    8/0 средняя, верхняя 
[Ac trans|Ci]
+24.1 +1.4 23 +24  1007.8  -1.6  753  279    +26.1       
18 14.04.12 060 (СВ) 10 км    10/0 средняя, верхняя 
[Ac trans|Ci fib]
+19.1 +4.1 37 +21  1007.7  -0.1  753  283    +26.1       
21 14.04.12 070 (В) 10 км    ясно 
+17.9 +7.5 51 +19  1007  -0.7  753  283           
00 15.04.12 090 (В) 10 км    8/0 средняя 
[Ac trans]
+16.2 +8.7 61 +17  1005.9  -1.2  752  284           
03 15.04.12 080 (В) н/о    н/о 
+14.4 +8.8 69 +15  1005.7  -0.2  752  286           
06 15.04.12 070 (В) 10 км    10/3 1000 м средняя, верхняя 
[Sc|Ac cast|Ci fib]
+17.5 +8.7 56 +19  1005.5  0.1  752  283  +14.4         
09 15.04.12 040 (СВ) 10 км    3/0 средняя 
[Ac trans]
+25.4 +8 33 +25  1004.9  -0.6  751  276           
12 15.04.12 120 (ЮВ) 10 км    10/3 1000 м средняя, верхняя 
[Sc diur, vesp|Ac cast|Ci]
+26.8 +7.4 29 +27  1004.8  0.1  751  274           
15 15.04.12 170 (Ю) 10 км    10/8 1000 м средняя 
[Sc|Ac As]
+23.4 +5.4 31 +23  1005.2  0.3  751  278    +27.5       
18 15.04.12 300 (СЗ) 10 км    9/4 1000 м средняя, верхняя 
[Sc|Ac trans|Ci fib]
+20.5 +7.7 44 +21  1007.1  1.9  753  281    +27.5       
21 15.04.12 тихо ()   10 км    3/0 средняя 
[Ac trans]
+17 +8.5 57 +17  1007.9  0.8  753  284           
00 16.04.12 360 (С) 10 км  слаб. ливневой дождь  10/10 600 м кучево-дожд. 
[Cb cap]
+15.8 +8.6 62 +17  1008.1  0.2  753  286           
03 16.04.12 тихо ()   10 км  {ливн. осадки}  3/0 средняя 
[Ac trans]
+13.5 +8.7 73 +14  1009.4  1.2  754  288           
06 16.04.12 080 (В) 10 км  {ливн. осадки}  8/0 верхняя 
[Ci fib]
+19.6 +11.4 59 +24  1010.1  0.7  755  282  +13.4         
09 16.04.12 120 (ЮВ) 10 км    10/3 1000 м средняя, верхняя 
[Sc diur, vesp|Ac trans|Ci]
+22.2 +10 46 +23  1009.6  -0.4  755  279           
12 16.04.12 170 (Ю) 10 км  слаб. ливневой дождь  10/6 1000 м кучево-дожд., средняя 
[Cb cap|Ac und]
+22.1 +10.4 47 +24  1009.5  -0.1  755  279           
15 16.04.12 120 (ЮВ) 10 км  {ливн. осадки}  10/5 1000 м кучево-дожд., средняя, верхняя 
[Cb cap|Ac trans|Ci fib]
+21.8 +10.1 47 +23  1009.7  0.2  755  280    +23.7       
18 16.04.12 090 (В) 10 км  {ливн. осадки}  8/4 1000 м кучево-дожд., средняя, верхняя 
[Cb cap|Ac trans|Ci fib]
+16.9 +10.2 65 +19  1011.6  1.9  756  285    +23.7       
21 16.04.12 280 (З) 10 км    10/8 1000 м кучево-дожд., средняя, верхняя 
[Cb cap|Ac trans|Ci fib]
+15.8 +10.9 73 +19  1012.9  1.2  757  286           
00 17.04.12 280 (З) 10 км    10/5 1000 м средняя 
[Sc|Ac und]
+14.3 +6.5 59 +16  1013  0.1  757  289           
03 17.04.12 280 (З) 10 км    10/8 1000 м средняя, верхняя 
[Sc|Ac trans|Ci fib]
+12.9 +6.8 66 +13  1013.8  0.1  758  290           
06 17.04.12 260 (З) 10 км    8/0 верхняя 
[Cs]
+15.7 +8.5 62 +16  1014.8  0.1  758  288  +12.9         
09 17.04.12 260 (З) 10 км    10/0 верхняя 
[Cs]
+19.1 +8 49 +20  1014.4  -0.4  758  284           
12 17.04.12 310 (СЗ) 10 км    10/1 1500 м верхняя 
[Sc|Cs]
+21.5 +7.4 40 +22  1014.1  -0.3  758  282           
15 17.04.12 290 (З) 10 км    10/3 1500 м верхняя 
[Sc diur, vesp|Cs]
+21.2 +6.3 38 +21  1013.5  -0.6  758  282    +21.8       
18 17.04.12 210 (ЮЗ) 10 км    10/3 1000 м средняя, верхняя 
[Sc|Ac trans|Ci fib]
+16.5 +8 57 +17  1014.2  0.7  758  287    +21.8       
21 17.04.12 210 (ЮЗ) 10 км    ясно 
+12.9 +7.7 71 +13  1014.3  758  290           
00 18.04.12 180 (Ю) 10 км    10/0 верхняя 
[Ci fib]
+11.2 +8 81 +12  1013.6  -0.7  758  292           
03 18.04.12 тихо ()   10 км    9/8 1000 м средняя 
[Sc|Ac trans]
+10.5 +7.9 84 +11  1013.7  -0.1  758  293           
06 18.04.12 080 (В) 10 км    9/9 1000 м 
[Sc]
+15.3 +8.7 65 +16  1012.5  -1.2  757  287  +10.2         
09 18.04.12 100 (В) 10 км    8/0 средняя, верхняя 
[Ac inh|Ci]
+21.3 +9 45 +21  1008.8  -3.6  754  280           
12 18.04.12 100 (В) 10 км    8/0 верхняя 
[Ci fib]
+23.9 +7 34 +24  1004.5  -4.3  751  277           
15 18.04.12 090 (В) 10 км    3/0 верхняя 
[Ci fib]
+24.1 +7.8 35 +24  1000.4  -4  748  276    +24.6       
18 18.04.12 060 (СВ) 10 км    9/0 средняя 
[Ac trans]
+20.9 +6.7 40 +21  999.6  -0.9  747  279    +24.6       
21 18.04.12 070 (В) 10 км    10/0 средняя 
[Ac und]
+19.5 +8 47 +21  997.8  -1.8  746  279           
00 19.04.12 100 (В) 10 км    9/0 средняя 
[Ac trans]
+17.5 +9 57 +19  997.8  -0.1  746  281           
03 19.04.12 090 (В) 10 км    10/8 1000 м кучево-дожд., средняя 
[Cb cap|Ac und]
+16.7 +9.7 63 +19  997.6  -0.2  746  281           
06 19.04.12 100 (В) 10 км    10/5 1000 м средняя 
[Sc|Ac und]
+18.1 +10.7 62 +22  999.4  1.8  747  280  +16.2         
09 19.04.12 220 (ЮЗ) 10 км    10/3 1000 м средняя, верхняя 
[Sc|Ac trans|Ci fib]
+21.7 +7.5 40 +22  1000.4  1.1  748  278           
12 19.04.12 230 (ЮЗ) 10 км    10/5 1000 м кучево-дожд., средняя, верхняя 
[Cb cap|Ac trans|Ci fib]
+19.5 +5.6 40 +20  1001.9  1.5  749  281           
15 19.04.12 230 (ЮЗ) 4000 м  слаб. ливневой дождь  10/8 1000 м кучево-дожд., средняя 
[Cb cap|Ac und]
+14.4 +9.9 74 +17  1004.8  2.8  751  286    +22.8       
18 19.04.12 240 (ЮЗ) 10 км  {ливн. осадки}  10/6 1000 м кучево-дожд., средняя 
[Cb cap|Ac und]
+14.7 +7.9 64 +15  1005.7  0.9  752  286    +22.8     
21 19.04.12 260 (З) 10 км    10/8 1000 м кучево-дожд., средняя 
[Cb cap|Ac und]
+13.2 +7.8 70 +14  1007.6  1.8  753  288           
00 20.04.12 250 (З) 10 км    10/5 1000 м средняя, верхняя 
[Sc|Ac trans|Ci fib]
+11.8 +8.2 79 +13  1009.2  1.6  754  290           
03 20.04.12 210 (ЮЗ) 10 км    10/3 1000 м средняя, верхняя 
[Sc|Ac trans|Ci fib]
+11.4 +8.5 82 +12  1010.2  755  291           
06 20.04.12 220 (ЮЗ) 10 км    9/4 1000 м средняя 
[Sc|Ac trans]
+15.5 +9 65 +15  1011.2  1.1  756  287  +11         
09 20.04.12 220 (ЮЗ) 10 км    9/8 1000 м средняя 
[Cu Sc|Ac trans]
+17.7 +9 57 +18  1011.6  0.4  756  285           
12 20.04.12 220 (ЮЗ) 10 км    5/4 1000 м средняя 
[Cu med, cong|Ac trans]
+19.7 +8.7 49 +21  1011.9  0.3  756  283           
15 20.04.12 210 (ЮЗ) 10 км    1/0 средняя 
[Ac trans]
+18.7 +7.3 47 +19  1011.9  0.1  756  284    +20       
18 20.04.12 210 (ЮЗ) 10 км    ясно 
+14.3 +7.2 62 +15  1013  757  289    +20       
21 20.04.12 130 (ЮВ) 10 км    ясно 
+12 +7.1 72 +13  1012.6  -0.4  757  291           
00 21.04.12 220 (ЮЗ) 10 км    ясно 
+11.3 +6.7 73 +12  1012.5  0.1  757  292           
03 21.04.12 040 (СВ) 10 км    10/1 1000 м средняя, верхняя 
[Sc|Ac cast|Ci]
+9.6 +7.5 87 +11  1012.6  0.1  757  293           
06 21.04.12 150 (ЮВ) 10 км    10/0 средняя, верхняя 
[Ac trans|Cs]
+16.1 +8.2 59 +17  1013.4  0.8  757  287  +9.5         
09 21.04.12 170 (Ю) 10 км    4/1 1500 м верхняя 
[Sc diur, vesp|Ci fib]
+21.1 +5.3 36 +21  1012.1  -1.2  756  282           
12 21.04.12 220 (ЮЗ) 10 км    9/5 1000 м средняя 
[Sc|Ac trans]
+22.4 +7 37 +22  1011.1  -1  756  280           
15 21.04.12 тихо ()   10 км    8/0 средняя, верхняя 
[Ac trans|Cc]
+22.6 +4.9 32 +23  1010.3  -0.8  755  280    +23.6       
18 21.04.12 тихо ()   10 км    ясно 
+16.7 +9.2 61 +17  1011  0.6  756  285    +23.6       
21 21.04.12 тихо ()   10 км    10/6 1000 м средняя 
[Sc|Ac und]
+15.2 +9.3 68 +15  1010.8  0.6  755  287           
00 22.04.12 310 (СЗ) 10 км  {ливн. осадки}  10/5 1000 м средняя 
[Sc|Ac und]
+14.5 +10.4 76 +18  1010.4  -0.4  755  287           
03 22.04.12 230 (ЮЗ) 10 км  {ливн. осадки}  8/4 1000 м средняя 
[Sc|Ac trans]
+13.1 +8.8 75 +14  1011.1  0.7  756  289           
06 22.04.12 140 (ЮВ) 10 км  {ливн. осадки}  9/9 1000 м кучево-дожд. 
[Cb cap]
+13.1 +8.8 75 +14  1011.1  0.8  756  289  +13.1         
09 22.04.12 170 (Ю) 4000 м  слаб. ливневой дождь  10/10 600 м 
[]
+14.6 +12.1 85 +20  1013.6  0.8  758  287           
12 22.04.12 тихо ()   10 км  {ливн. осадки}  10/10 1000 м кучево-дожд. 
[Cb cap]
+15.6 +11.4 76 +18  1013.8  0.2  758  287           
15 22.04.12 190 (Ю) 10 км    10/0 средняя, верхняя 
[Ac cast|Ci]
+16.8 +10.7 67 +20  1012.8  -0.9  757  285    +17.2       
18 22.04.12 220 (ЮЗ) 10 км    10/4 1500 м средняя 
[Sc|Ac und]
+13.6 +9.2 75 +14  1014.9  758  290    +17.2     
21 22.04.12 200 (Ю) 10 км    8/1 1500 м средняя 
[Sc|Ac trans]
+12.6 +8.9 78 +13  1015.9  759  291           
00 23.04.12 220 (ЮЗ) 10 км    5/0 средняя 
[Ac trans]
+11.5 +8.9 84 +12  1016.1  0.1  759  292           
03 23.04.12 210 (ЮЗ) 10 км    4/3 1500 м средняя 
[Sc|Ac trans]
+11.7 +8.6 81 +11  1016.7  0.6  760  292           
06 23.04.12 230 (ЮЗ) 10 км    4/3 1000 м верхняя 
[Sc|Ci fib]
+15.7 +8.6 63 +16  1017.9  1.3  761  288  +11.3         
09 23.04.12 220 (ЮЗ) 10 км    3/3 1000 м 
[Cu hum]
+19.2 +8.1 49 +20  1017.9  761  285           
12 23.04.12 250 (З) 10 км    5/5 1000 м кучево-дожд. 
[Cb cap]
+20.3 +7 42 +20  1017.4  -0.4  760  284           
15 23.04.12 260 (З) 10 км    3/3 1000 м 
[Sc diur, vesp]
+19.4 +5.9 41 +20  1017.3  0.1  760  285    +21       
18 23.04.12 210 (ЮЗ) 10 км    ясно 
+14.4 +7.8 64 +15  1018.9  1.5  761  290    +21       
21 23.04.12 тихо ()   10 км    ясно 
+11.3 +7.2 76 +11  1019.5  0.5  762  294           
00 24.04.12 тихо ()   10 км    ясно 
+9.1 +7.3 88 +9  1019.5  -0.1  762  296           
03 24.04.12 тихо ()   10 км    ясно 
+8 +6.7 92 +8  1020.3  0.7  762  297           
06 24.04.12 110 (В) 10 км    1/0 верхняя 
[Ci fib]
+16.6 +6.6 52 +17  1020.3  0.1  763  289  +7.7         
09 24.04.12 070 (В) 10 км    1/1 1000 м 
[Cu hum]
+21.7 +7.7 40 +22  1019.1  -1.1  762  283           
12 24.04.12 110 (В) 10 км    1/0 
[Cu hum]
+23.9 -3.1 16 +24  1017.8  -1.3  761  282           
15 24.04.12 080 (В) 10 км    ясно 
+23.7 +2.4 25 +24  1016.9  -0.9  760  281    +24.7       
18 24.04.12 080 (В) 10 км    ясно 
+17.8 +4.4 41 +19  1017.4  0.4  760  287    +24.7       
21 24.04.12 тихо ()   10 км    ясно 
+15.6 +7.1 57 +16  1017.2  -0.2  760  289           
00 25.04.12 100 (В) 10 км    ясно 
+13.1 +9 76 +14  1017.3  0.1  760  291           
03 25.04.12 тихо ()   10 км    3/0 верхняя 
[Ci]
+10.9 +8 82 +11  1017.8  0.4  761  293           
06 25.04.12 тихо ()   10 км    9/0 средняя, верхняя 
[Ac trans|Ci]
+17.4 +9.4 59 +18  1018.6  0.9  761  287  +10.5         
09 25.04.12 170 (Ю) 10 км    3/0 верхняя 
[Ci fib]
+23.9 +7.6 35 +24  1017.9  -0.6  761  281           
12 25.04.12 260 (З) 10 км    1/0 средняя 
[Ac trans]
+26.3 +3.2 22 +26  1016.8  -1  760  279           
15 25.04.12 140 (ЮВ) 10 км    ясно 
+1    759  306           
18 25.04.12 310 (СЗ) 10 км    ясно 
+19.6 +10.4 55 +22  1016.3  0.2  760  284    +24.7       
21 25.04.12 тихо ()   10 км    ясно 
+17.6 +7.8 53 +18  1016  -0.4  759  286           
00 26.04.12 260 (З) 10 км    ясно 
+13.2 +9.1 76 +14  1015.9  -0.1  759  290           
03 26.04.12 тихо ()   10 км    ясно 
+11.7 +7.1 73 +12  1016.5  0.6  760  292           
06 26.04.12 260 (З) 10 км    ясно 
+19.5 +10 54 +22  1016.7  0.3  760  284  +11.7         
09 26.04.12 100 (В) 10 км    ясно 
+24.8 +12.2 45 +29  1016.6  0.1  760  278           
12 26.04.12 080 (В) 10 км    ясно 
+28.5 +7.5 27 +29  1015.4  -1.2  759  276           
15 26.04.12 120 (ЮВ) 10 км    1/1 1000 м 
[Sc diur, vesp]
+27.3 +5.6 25 +27  1015.1  -0.3  759  277    +29.6       
18 26.04.12 010 (С) 10 км    ясно 
+22.1 +6 35 +22  1015.8  0.6  759  282    +29.6       
21 26.04.12 060 (СВ) 10 км    ясно 
+18.2 +6 45 +20  1016.3  0.5  760  286           
00 27.04.12 тихо ()   10 км    ясно 
+14.5 +7 61 +15  1016.9  0.5  760  290           
03 27.04.12 тихо ()   10 км    1/0 средняя 
[Ac trans]
+13.1 +8.4 73 +13  1017.8  0.9  761  291           
06 27.04.12 150 (ЮВ) 10 км    3/0 средняя 
[Ac cast]
+19.8 +8.8 49 +21  1018.7  0.9  761  285  +12.5         
09 27.04.12 100 (В) 10 км    ясно 
+24.2 +9 38 +24  1019  0.4  762  280           
12 27.04.12 100 (В) 10 км    1/1 1500 м 
[Cu hum]
+28.8 +4.5 21 +29  1017.6  -1.3  761  277           
15 27.04.12 070 (В) 10 км    3/3 1500 м 
[Cu hum]
+27.5 +3.1 21 +28  1017.8  0.2  761  278    +28.9       
18 27.04.12 040 (СВ) 10 км    ясно 
+22.3 +3.9 30 +22  1018.9  761  283    +28.9       
21 27.04.12 050 (СВ) 10 км    ясно 
+19.6 +5.4 39 +21  1019.6  0.7  762  286           
00 28.04.12 060 (СВ) 10 км    ясно 
+17.9 +7 49 +19  1019.8  0.1  762  287           
03 28.04.12 050 (СВ) 10 км    ясно 
+15.9 +7.4 57 +17  1020.8  763  289           
06 28.04.12 080 (В) 10 км    ясно 
+23.9 +7.2 34 +24  1021.4  0.7  763  282  +15.7         
09 28.04.12 090 (В) 10 км    1/1 1500 м 
[Cu hum]
+28 +4.6 22 +28  1021  -0.4  763  278           
12 28.04.12 060 (СВ) 10 км    4/4 1500 м 
[Cu hum]
+29.1 +3.8 20 +29  1020  -0.9  762  277           
15 28.04.12 060 (СВ) 10 км    1/1 1500 м 
[Sc]
+28.5 +4 21 +29  1019.1  -0.9  762  277    +29.8       
18 28.04.12 040 (СВ) 10 км    ясно 
+22.3 +4.5 31 +22  1019.9  0.8  762  283    +29.8       
21 28.04.12 тихо ()   10 км    ясно 
+18.5 +6.4 45 +19  1020.1  0.1  762  287           
00 29.04.12 тихо ()   10 км    ясно 
+15.5 +8.8 64 +16  1020  -0.2  762  289           
03 29.04.12 тихо ()   10 км    ясно 
+14.7 +8.3 65 +15  1020  762  290           
06 29.04.12 240 (ЮЗ) 10 км    ясно 
+22.7 +10 45 +24  1020.3  0.3  763  282  +14.6         
09 29.04.12 040 (СВ) 10 км    ясно 
+29.7 +6.4 23 +30  1019.4  -0.8  762  276           
12 29.04.12 130 (ЮВ) 10 км    4/4 1000 м 
[Cu med, cong]
+29.7 +6.3 23 +30  1018.1  -1.2  761  276           
15 29.04.12 120 (ЮВ) 10 км    8/6 1000 м верхняя 
[Cu med, cong|Ci]
+27.8 +7.5 28 +28  1017.4  -0.8  760  277    +30.4       
18 29.04.12 тихо ()   10 км    ясно 
+22.5 +8.4 40 +23  1017.9  0.5  761  282    +30.4  0.8     
21 29.04.12 тихо ()   10 км    3/0 средняя 
[Ac cast]
+19.3 +6.6 44 +19  1017.8  -0.2  761  285           
00 30.04.12 тихо ()   10 км    ясно 
+15.6 +9.1 65 +16  1017.5  -0.3  760  288           
03 30.04.12 210 (ЮЗ) 10 км    ясно 
+14.1 +11 82 +17  1017.4  0.1  760  289           
06 30.04.12 тихо ()   10 км    ясно 
+24.8 +8.9 36 +25  1017.6  0.3  761  279  +13.5         
09 30.04.12 140 (ЮВ) н/о    н/о 
+28.1 +6 25 +28  1016.6  -0.9  760  277           
12 30.04.12 010 (С) 10 км    6/0 верхняя 
[Ci fib]
+30.7 +5.2 20 +31  1015.3  -1.3  759  274           
15 30.04.12 340 (С) 10 км    4/0 верхняя 
[Ci fib]
+29.4 +4.6 21 +29  1014.1  -1.2  758  275    +30.8       
18 30.04.12 310 (СЗ) 10 км    5/0 верхняя 
[Ci fib]
+23.5 +6.4 33 +24  1014.8  0.6  758  280    +30.8       
21 30.04.12 270 (З) 10 км    8/0 средняя, верхняя 
[Ac trans|Ci fib]
+20 +9.1 49 +20  1014.8  758  283           
00 01.05.12 230 (ЮЗ) 10 км    6/3 1000 м верхняя 
[Sc|Ci fib]
+17.3 +9.7 61 +20  1014.2  -0.7  758  286           
03 01.05.12 тихо ()   10 км    8/8 1000 м 
[Sc diur, vesp]
+16.2 +9.6 65 +17  1014.7  0.6  758  287           
06 01.05.12 080 (В) 10 км    9/0 средняя, верхняя 
[Ac trans|Ci]
+21.6 +10.9 51 +24  1015.2  0.5  759  281  +16         
09 01.05.12 070 (В) 10 км    4/0 верхняя 
[Cc]
+24.9 +12 45 +29  1015.1  0.1  759  278           
12 01.05.12 010 (С) 10 км    8/0 средняя 
[Ac trans]
+28 +11.5 36 +31  1014.5  -0.5  758  275           
15 01.05.12 020 (С) 10 км    6/0 средняя 
[Ac trans]
+26.1 +10.8 38 +28  1013.8  -0.8  758  277    +28.3       
18 01.05.12 тихо ()   10 км    ясно 
+21.6 +10.5 49 +23  1014.9  1.1  759  281    +28.3       
21 01.05.12 тихо ()   10 км    ясно 
+17.3 +11.1 67 +20  1015.1  0.1  759  285           
00 02.05.12 240 (ЮЗ) 10 км    ясно 
+15.5 +13.4 87 +23  1014.5  -0.6  758  286           
03 02.05.12 тихо ()   10 км    3/0 верхняя 
[Ci fib]
+14.6 +12.3 86 +19  1014.4  -0.1  758  288           
06 02.05.12 210 (ЮЗ) 10 км    1/1 1500 м 
[Cu hum]
+22.1 +13.2 57 +28  1014.8  0.5  758  280  +14.5         
Время (UTC), дата Ветер
(°,м/с) 
Видим.   Явления Облачность Т
(°С)
Тd
(°С)
f(%) Тe
(°С)
Pmin
(гПа)
dP
(гПа)
Po
(мм)
O2
(г/м3)
Тmin Tmax R s Состояние
почвы